Retour au catalogue

STARLINK-31859

ActifCommunicationsVLEO
NORAD 59848·PAYLOAD·🇺🇸 United States

Lancé May 23, 2024 depuis Cape Canaveral Space Force Station

Loading…

Prochains Passages (prochaines 24 heures)

TLE

FraisSource: CelesTrak SupGP

Époque: Sep 14, 2026, 22:40 UTC

1 59848C 24097P   26257.94493056  .00072091  00000+0  22418-2 0  2572
2 59848  42.9976 277.3070 0004363  81.3636   4.2927 15.32456982    12

Suivez STARLINK-31859 en temps réel avec AllMySat

Download on the App Store